Location: Erp
(42.9417°N, 1.2009°E)
Time: 19:59:29
(UTC+00:00)

SJ-12 - Pass Details

Date: 12 January 2026
Orbit: 515 x 525 km, 97.8° (Epoch: 13 February)

Event Time Altitude Azimuth Distance (km) Brightness Sun altitude
Rises 17:55:18 0° 176° (S) 2,642 7.5 -13.0°
Reaches altitude 10° 17:57:25 10° 180° (S) 1,760 6.6 -13.4°
Maximum altitude 18:01:09 56° 259° (W) 635 4.5 -14.1°
Drops below altitude 10° 18:04:56 10° 339° (NNW) 1,779 6.5 -14.7°
Sets 18:07:05 0° 343° (NNW) 2,674 7.3 -15.1°
